Flag for U.S.A. Weather past 2 weeks in Glendale, Arizona, U.S.A.

Now
72 °F

Light rain. Mostly cloudy.


Feels Like: 73 °F
Forecast: 75 / 93 °F
Wind: 7 mph from Southwest

Location: Phoenix-Deer Valley Municipal Airport

Current Time: Aug 21, 2014 at 11:01:36 PM

Latest Report: Aug 21, 2014 at 9:53 PM


Visibility: 10 mi

Pressure: 29.96 "Hg

Humidity: 78%

Dew point: 65 °F

Location of GlendaleLocation

Historic Weather in Glendale — Graph

°F

Glendale temperature yesterday

Maximum temperature yesterday: 94 °F (at 3:53 PM)
Minimum temperature yesterday: 73 °F (at 1:53 AM)
Average temperature yesterday: 84 °F

Past Weeks' High & Low Weather Summary

 TemperatureHumidityPressure
High107 °F (Aug 17, 4:53 PM)94% (Aug 12, 9:53 PM)29.99 "Hg (Aug 12, 9:53 PM)
Low70 °F (Aug 19, 7:01 AM)9% (Aug 7, 3:53 PM)29.66 "Hg (Aug 17, 5:53 PM)
Average88 °F42%29.82 "Hg
* Reported Aug 6 9:53 PM — Aug 21 9:53 PM, Glendale, Weather by CustomWeather, © 2014

Note: Actual official high and low records may vary slightly from our data, if they occured in-between our weather recording intervals... More about our weather records

Advertising

Glendale weather history for previous 24 hours

 ConditionsComfort  
Time TempWeatherWind HumidityBarometerVisibility
9:53 PM
Aug 21
72 °FLight rain. Mostly cloudy.7 mph78%29.96 "Hg10 mi
8:53 PM75 °FPassing clouds.20 mph66%29.93 "Hg10 mi
7:53 PM85 °FPassing clouds.6 mph40%29.86 "Hg10 mi
6:53 PM85 °FPassing clouds.3 mph42%29.82 "Hg10 mi
5:53 PM87 °FSunny.5 mph35%29.83 "Hg10 mi
4:53 PM87 °FSunny.5 mph37%29.82 "Hg10 mi
3:53 PM84 °FScattered clouds.No wind41%29.83 "Hg10 mi
2:53 PM84 °FSunny.6 mph43%29.85 "Hg10 mi
1:53 PM80 °FLight rain. Partly sunny.7 mph58%29.89 "Hg10 mi
12:53 PM81 °FLight rain. Broken clouds.17 mph45%29.89 "Hg10 mi
11:53 AM82 °FSunny.15 mph43%29.93 "Hg10 mi
10:53 AM86 °FSunny.18 mph33%29.92 "Hg10 mi
9:53 AM83 °FSunny.6 mph44%29.91 "Hg10 mi
8:53 AM82 °FSunny.5 mph49%29.88 "Hg10 mi
7:53 AM81 °FSunny.3 mph56%29.86 "Hg10 mi
6:53 AM80 °FSunny.No wind56%29.85 "Hg10 mi
5:53 AM78 °FClear.3 mph62%29.83 "Hg10 mi
4:53 AM79 °FClear.5 mph62%29.81 "Hg10 mi
3:53 AM79 °FClear.3 mph60%29.81 "Hg10 mi
2:53 AM80 °FClear.No wind58%29.80 "Hg10 mi
1:53 AM81 °FClear.No wind54%29.79 "Hg10 mi
12:53 AM82 °FClear.No wind49%29.81 "Hg10 mi
11:53 PM
Aug 20
82 °FPassing clouds.5 mph49%29.81 "Hg10 mi
Weather by CustomWeather, © 2014

See weather overviewHow to use our weather pages